STARLINK-37534, 68897

Orbit data source: Space-Track

STARLINK-37534, 68897 is a payload satellite owned by SpaceX/Seattle (US) in SSO that was launched on Thu, 30 Apr 2026 UTC via an FALCON 9 launch vehicle from the Air Force Western Test Range (AFWTR). Payload-class satellites include a variety of spacecraft equipped with specific instruments for various scientific and technological missions. These include communications satellites like Starlink; space stations such as the ISS; scientific satellites like the Hubble; Earth observation satellites from companies like Planet Labs, Umbra, and HawkEye 360; GPS; miniature CubeSats for education and research; and military/defense satellites.

Loading next visibility...
Identifier
68897, 2026-097C
Orbit
SSO
Country
Flag of USUS
Related business
Manufacturer
SpaceX/Seattle
Mission
Operational spacecraft
Bus & Motor
STARLINK V2MO, Unknown motor
Mass
575 kg wet, ~530 kg dry
Launch date (UTC)
2026-04-30 (2 months ago)
Launch vehicle
FALCON 9
Launch site
Air Force Western Test Range (AFWTR)
Object type
Payload
Rocket body
Debris
Shape & HBR
Unknown shape, 14.5 m
Radar Cross Section
Large (>1 m²)

Expand to show TLE details & history
Last TLE update: 1 day ago

TLE from 1 day ago
0 STARLINK-37534
1 68897U 26097C   26170.50494151  .00018652  00000-0  57853-3 0  9990
2 68897  97.2856   6.0185 0001823  84.1804 275.9646 15.33450881  7842
Epoch: 2026-06-19T12:07Z
TLE epoch observation values (Epoch: 2026-06-19T12:07:06.946Z)
Latitude
-0.00008°
Longitude
-83.49339°
Altitude
468.508 km
Speed
7.632 km/s
True Right ascension
00h 24m 04s
True Declination
0° 00' 00"
Sunlit
Object was in daylight at epoch
Visualization orbit readout
Latitude
Unknown
Longitude
Unknown
Altitude
Unknown
Speed
Unknown
Apparent Right ascension
Unknown
Apparent Declination
Unknown
Sunlit
N/A
Visualization observer readout
Local Sidereal Time
07:22:56
Azimuth
Unknown
Elevation
Unknown
Doppler factor
Unknown
Orbital elements
Apogee altitude
463.715 km
Perigee altitude
461.221 km
Semi-major axis
6,840.605 km
Eccentricity
0.00018
Inclination
97.2856°
RAAN
6.0185°
Arg. of periapsis
84.1804°
True anomaly
275.94382°
Mean anomaly
275.9646°
Eccentric anomaly
275.95421°
Mean motion
3.8362 °/min
Orbital period
93.84 mins
BSTAR
0.00057853
Loading maneuver chart data...
Computing Atmospheric mass density...
Loading historical data...
Loading historical data...
Loading historical data...
Loading historical data...
Loading historical data...
Loading historical data...
Loading historical data...

Documentation

Showing up to 5 results
|